This demonstration page uses our WeatherBlox Daily Observations layout. Learn more.

Left ArrowRight Arrow

39.51506, -84.39828

Hourly Observations for May 21, 2018

Temp ( °F °C ) Dew Point ( °F °C ) Humidity (%) Winds ( mph kmh ) Pressure ( in mb ) Visibility ( mi km ) Precip ( " mm )
12:15 am 00:15 Clear with Mist and Fog 67 19.4 67 19.3 99 99 NNE 5 7 30.09 1019 4 6 0.00 0.00
12:35 am 00:35 Clear with Mist and Fog 67 19.3 66 19.1 99 99 N 3 6 30.09 1019 3 5 0.00 0.00
12:55 am 00:55 Clear with Mist and Fog 66 19.1 66 18.9 99 99 N 3 6 30.09 1019 3 4 0.00 0.00
1:15 am 01:15 Clear 66 18.9 66 18.7 99 99 NNE 6 9 30.09 1019 7 11 0.00 0.00
1:35 am 01:35 Partly Cloudy 66 18.9 65 18.1 95 95 N 5 7 30.09 1019 10 16 0.00 0.00
1:55 am 01:55 Partly Cloudy 66 18.7 64 17.9 95 95 NNE 6 9 30.09 1019 10 16 0.00 0.00
2:15 am 02:15 Clear 65 18.6 64 17.6 94 94 NNE 6 9 30.09 1019 10 16 0.00 0.00
2:35 am 02:35 Clear 65 18.5 63 17.4 93 93 NNE 3 6 30.09 1019 10 16 0.00 0.00
2:55 am 02:55 Clear 65 18.5 63 17.1 92 92 N 6 9 30.09 1019 10 16 0.00 0.00
3:15 am 03:15 Clear 65 18.1 63 17 93 93 N 5 7 30.09 1019 10 16 0.00 0.00
3:35 am 03:35 Clear 64 18 62 16.8 93 93 N 6 9 30.09 1019 10 16 0.00 0.00
3:55 am 03:55 Clear 64 17.9 62 16.7 93 93 NNE 3 6 30.09 1019 10 16 0.00 0.00
4:15 am 04:15 Clear with Mist and Fog 64 17.7 62 16.7 94 94 N 5 7 30.09 1019 5 8 0.00 0.00
4:35 am 04:35 Clear 64 17.6 62 16.6 94 94 N 5 7 30.09 1019 10 16 0.00 0.00
4:55 am 04:55 Clear 63 17.4 62 16.4 94 94 N 3 6 30.09 1019 10 16 0.00 0.00
5:15 am 05:15 Clear 63 17.3 61 16.2 93 93 N 6 9 30.09 1019 10 16 0.00 0.00
5:35 am 05:35 Clear 63 17.3 61 16 92 92 N 6 9 30.09 1019 10 16 0.00 0.00
5:55 am 05:55 Clear 63 17.4 61 16 92 92 NNE 6 9 30.09 1019 10 16 0.00 0.00
6:15 am 06:15 Clear 63 17.4 60 15.8 90 90 NNE 6 9 30.09 1019 10 16 0.00 0.00
6:35 am 06:35 Sunny 64 17.5 60 15.7 89 89 NNE 6 9 30.12 1020 10 16 0.00 0.00
6:55 am 06:55 Sunny 64 17.5 60 15.7 89 89 NE 7 11 30.12 1020 10 16 0.00 0.00
7:15 am 07:15 Sunny 64 17.5 60 15.8 90 90 NNE 7 11 30.12 1020 10 16 0.00 0.00
7:35 am 07:35 Sunny 64 17.6 60 15.7 89 89 NE 6 9 30.12 1020 10 16 0.00 0.00
7:55 am 07:55 Sunny 64 17.8 60 15.8 88 88 NE 3 6 30.12 1020 10 16 0.00 0.00
8:15 am 08:15 Sunny 65 18.1 61 15.9 87 87 NE 5 7 30.12 1020 10 16 0.00 0.00
8:35 am 08:35 Sunny 66 18.7 61 16.1 85 85 NE 5 7 30.12 1020 10 16 0.00 0.00
8:55 am 08:55 Sunny 67 19.4 62 16.6 84 84 ENE 6 9 30.12 1020 10 16 0.00 0.00
9:15 am 09:15 Sunny 67 19.6 62 16.5 82 82 ENE 8 13 30.12 1020 10 16 0.00 0.00
9:35 am 09:35 Sunny 69 20.3 62 16.6 79 79 E 3 6 30.15 1021 7 11 0.00 0.00
9:55 am 09:55 Sunny 70 20.9 63 17 78 78 E 7 11 30.12 1020 10 16 0.00 0.00
10:15 am 10:15 Sunny 72 22.2 64 17.6 75 75 E 5 7 30.12 1020 10 16 0.00 0.00
10:35 am 10:35 Sunny 74 23.1 65 18.3 74 74 ESE 7 11 30.12 1020 10 16 0.00 0.00
10:55 am 10:55 Partly Cloudy 74 23.2 65 18.1 73 73 E 6 9 30.12 1020 10 16 0.00 0.00
11:15 am 11:15 Sunny 74 23.5 65 18.2 72 72 SE 5 7 30.12 1020 10 16 0.00 0.00
11:35 am 11:35 Sunny 76 24.2 66 19 73 73 ESE 5 7 30.12 1020 10 16 0.00 0.00
11:55 am 11:55 Sunny 76 24.4 67 19.2 73 73 SSE 7 11 30.12 1020 10 16 0.00 0.00
12:15 pm 12:15 Sunny 78 25.4 68 20.1 73 73 S 6 9 30.12 1020 10 16 0.00 0.00
12:35 pm 12:35 Sunny 78 25.4 67 19.7 71 71 Calm 30.09 1019 10 16 0.00 0.00
12:55 pm 12:55 Sunny 78 25.5 68 20.2 73 73 W 3 6 30.09 1019 10 16 0.00 0.00
1:15 pm 13:15 Sunny 79 26.2 68 20.1 69 69 S 5 7 30.09 1019 10 16 0.00 0.00
1:35 pm 13:35 Sunny 81 27 69 20.3 67 67 ESE 5 7 30.06 1018 10 16 0.00 0.00
1:55 pm 13:55 Sunny 81 27.1 68 20.2 66 66 SSW 3 6 30.06 1018 10 16 0.00 0.00
2:15 pm 14:15 Sunny 82 28 68 20.1 62 62 S 6 9 30.06 1018 10 16 0.00 0.00
2:35 pm 14:35 Sunny 83 28.3 69 20.6 63 63 SE 7 11 30.03 1017 10 16 0.00 0.00
2:55 pm 14:55 Sunny 83 28.4 67 19.5 59 59 S 6 9 30.03 1017 10 16 0.00 0.00
3:15 pm 15:15 Sunny 84 29.1 68 19.8 57 57 SW 7 11 30.00 1016 10 16 0.00 0.00
3:35 pm 15:35 Sunny 84 28.8 67 19.5 57 57 SSW 7 11 30.00 1016 10 16 0.00 0.00
3:55 pm 15:55 Partly Cloudy 84 28.7 67 19.5 58 58 SSW 6 9 29.97 1015 10 16 0.00 0.00
4:15 pm 16:15 Sunny 84 28.9 65 18.3 53 53 WSW 6 9 29.97 1015 10 16 0.00 0.00
4:35 pm 16:35 Sunny 85 29.3 66 18.8 53 53 SSW 8 13 29.97 1015 10 16 0.00 0.00
4:55 pm 16:55 Sunny 85 29.2 65 18.5 53 53 WSW 7 11 29.94 1014 10 16 0.00 0.00
5:15 pm 17:15 Sunny 85 29.2 66 19.1 55 55 SSW 6 9 29.94 1014 10 16 0.00 0.00
5:35 pm 17:35 Sunny 85 29.4 67 19.2 54 54 SW 7 11 29.94 1014 10 16 0.00 0.00
5:55 pm 17:55 Sunny 84 28.9 66 19 55 55 SW 7 11 29.94 1014 10 16 0.00 0.00
6:15 pm 18:15 Sunny 84 28.7 66 19 56 56 SSW 5 7 29.94 1014 10 16 0.00 0.00
6:35 pm 18:35 Sunny 82 27.5 68 20 64 64 SSW 6 9 29.97 1015 10 16 0.00 0.00
6:55 pm 18:55 Sunny 81 27.4 68 20.1 64 64 SW 7 11 29.97 1015 10 16 0.00 0.00
7:15 pm 19:15 Sunny 80 26.8 69 20.8 70 70 WSW 3 6 29.97 1015 10 16 0.00 0.00
7:35 pm 19:35 Sunny 80 26.4 69 20.4 70 70 SW 3 6 29.97 1015 10 16 0.00 0.00
7:55 pm 19:55 Sunny 78 25.8 69 20.4 72 72 NW 7 11 30.00 1016 10 16 0.00 0.00
8:15 pm 20:15 Mostly Cloudy with Nearby Thunderstorms 73 22.5 65 18.2 77 77 NW 16 26 30.00 1016 10 16 0.00 0.00
8:35 pm 20:35 Partly Cloudy 71 21.8 65 18.3 81 81 WNW 10 17 30.03 1017 10 16 0.00 0.00
8:55 pm 20:55 Cloudy 70 21.2 65 18.2 83 83 WNW 8 13 30.03 1017 10 16 0.00 0.00
9:15 pm 21:15 Mostly Cloudy with Light Rain 70 21 65 18.3 85 85 Calm 30.03 1017 10 16 0.00 0.00
9:40 pm 21:40 Cloudy with Nearby Thunderstorms 68 20.2 65 18.6 91 91 WSW 8 13 30.03 1017 7 11 0.03 0.76
9:55 pm 21:55 Cloudy with Thunderstorms 68 19.8 65 18.3 91 91 SW 3 6 30.03 1017 7 11 0.07 1.78
10:15 pm 22:15 Cloudy with Nearby Thunderstorms 67 19.7 65 18.5 93 93 S 3 6 30.03 1017 7 11 0.05 1.27
10:35 pm 22:35 Cloudy with Light Rain 68 19.8 65 18.4 92 92 NE 5 7 30.00 1016 10 16 0.06 1.52
10:55 pm 22:55 Mostly Cloudy 67 19.7 65 18.6 93 93 SE 3 6 30.03 1017 10 16 0.06 1.52
11:15 pm 23:15 Mostly Cloudy 68 19.9 66 18.9 94 94 SSE 6 9 30.03 1017 10 16 0.00 0.00
11:35 pm 23:35 Partly Cloudy 68 20 66 19 94 94 SE 5 7 30.03 1017 10 16 0.00 0.00
11:55 pm 23:55 Mostly Cloudy 67 19.7 66 18.7 94 94 SE 7 11 30.03 1017 10 16 0.00 0.00

Powered by AerisWeather